EW9776 Weather Reports


Display with metric or nautical units.
time (UTC)temp
F
wind
direction
speed
MPH
gust
MPH
rain 1hr
in
rain 24hr
in
rain mn
in
humidity
%
barometer
mb
20260504000035 88 68 2.0 6.0 0.00 0.00 0.00 24 1011.1
20260503234535 88 57 1.0 6.0 0.00 0.00 0.00 23 1011.3
20260503233037 87 111 1.0 5.0 0.00 0.00 0.00 21 1011.5
20260503231611 87 147 2.0 7.0 0.00 0.00 0.00 22 1011.7
20260503230035 87 48 3.0 8.0 0.00 0.00 0.00 22 1012.0
20260503224531 87 142 1.0 6.0 0.00 0.00 0.00 21 1012.2
20260503223034 85 208 1.0 7.0 0.00 0.00 0.00 23 1012.7
20260503220036 85 200 2.0 9.0 0.00 0.00 0.00 24 1012.9
20260503214535 84 34 3.0 14.0 0.00 0.00 0.00 24 1013.1
20260503213107 84 34 3.0 10.0 0.00 0.00 0.00 25 1013.3
20260503211610 84 36 3.0 8.0 0.00 0.00 0.00 26 1013.6
20260503210034 83 2 3.0 10.0 0.00 0.00 0.00 27 1013.7
20260503204536 83 355 3.0 13.0 0.00 0.00 0.00 27 1013.9
20260503200036 82 333 3.0 14.0 0.00 0.00 0.00 28 1014.3
20260503194535 81 345 3.0 8.0 0.00 0.00 0.00 33 1014.6
20260503191535 80 345 2.0 8.0 0.00 0.00 0.00 40 1014.7
20260503190035 78 355 3.0 7.0 0.00 0.00 0.00 44 1014.9
20260503184535 77 348 3.0 7.0 0.00 0.00 0.00 45 1015.1
20260503183035 76 348 3.0 7.0 0.00 0.00 0.00 45 1015.2
20260503181612 74 338 3.0 6.0 0.00 0.00 0.00 45 1015.4
20260503180037 75 342 1.0 4.0 0.00 0.00 0.00 43 1015.5
20260503173031 75 344 1.0 5.0 0.00 0.00 0.00 42 1015.7
20260503171533 75 271 1.0 4.0 0.00 0.00 0.00 44 1015.7
20260503120110 51 180 0.0 2.0 0.00 0.00 0.00 76 1015.8
20260503100141 57 183 4.0 6.0 0.00 0.00 0.00 65 1015.7
20260503071536 55 202 2.0 3.0 0.00 0.00 0.00 82 1015.7
20260503060111 57 202 0.0 2.0 0.00 0.00 0.00 79 1015.6
20260503054537 58 202 1.0 3.0 0.00 0.00 0.00 76 1015.7
20260503053035 60 164 1.0 4.0 0.00 0.00 0.00 71 1015.6
20260503051532 61 135 2.0 3.0 0.00 0.00 0.00 72 1015.5
20260503050035 60 109 1.0 4.0 0.00 0.00 0.00 69 1015.5
20260503044535 62 165 2.0 6.0 0.00 0.00 0.00 64 1015.4
20260503043037 62 99 2.0 5.0 0.00 0.00 0.00 63 1015.3
20260503041536 63 176 1.0 4.0 0.00 0.00 0.00 61 1015.0
20260503040040 62 157 1.0 4.0 0.00 0.00 0.00 63 1014.8
20260503034537 63 194 1.0 3.0 0.00 0.00 0.00 64 1014.6
20260503033036 64 194 3.0 4.0 0.00 0.00 0.00 64 1014.3
20260503031533 66 185 2.0 4.0 0.00 0.00 0.00 64 1014.0
20260503030032 68 180 1.0 4.0 0.00 0.00 0.00 63 1013.7
20260503021534 72 202 0.0 4.0 0.00 0.00 0.00 59 1013.4
20260503020043 74 202 0.0 1.0 0.00 0.00 0.00 59 1013.4
20260503020037 76 170 1.0 3.0 0.00 0.00 0.00 53 1013.3
20260503013036 77 45 0.0 2.0 0.00 0.00 0.00 49 1013.4
20260503011534 78 16 1.0 4.0 0.00 0.00 0.00 46 1013.4
20260503010111 78 13 1.0 4.0 0.00 0.00 0.00 43 1013.3
20260503004534 80 38 3.0 7.0 0.00 0.00 0.00 34 1013.3
20260503003126 81 88 1.0 7.0 0.00 0.00 0.00 34 1013.2